Location: Blanot
(47.1713°N, 4.2340°E)
Time: 10:26:30
(UTC+00:00)

Cosmos 2278 - Pass Details

Date: 14 July 2020
Orbit: 838 x 854 km, 71.1° (Epoch: 06 August)

Event Time Altitude Azimuth Distance (km) Brightness Sun altitude
Rises 01:59:21 0° 333° (NNW) 3,434 7.3 -15.2°
Reaches altitude 10° 02:01:49 10° 335° (NNW) 2,495 6.6 -15.0°
Maximum altitude 02:07:34 81° 63° (ENE) 870 3.8 -14.5°
Drops below altitude 10° 02:13:17 10° 151° (SSE) 2,477 5.9 -13.9°
Sets 02:15:43 0° 152° (SSE) 3,408 6.6 -13.7°
